[[{"header":{"parameterUnit":"m.s-1","parameterCategory":2,"la1":30.2992,"la2":30.254,"lo1":-89.0895,"lo2":-89.0443,"dy":0.0025,"dx":0.0025,"nx":19,"ny":19,"refTime":"2026-04-12T09:00:00:Z","depth":"0","parameterNumber":2,"parameterNumberName":"U-component_of_CURRENTS"},"data":[0,0,0,-0.1766,-0.177,-0.1852,-0.1852,-0.1826,-0.1826,0,0,0,0,0,0,0,0,0,0,0,-0.1707,-0.1708,-0.1766,-0.177,-0.1852,-0.1852,-0.1826,-0.1826,0,0,0,0,0,0,0,0,0,0,0,-0.1706,-0.1708,-0.1709,-0.1771,-0.1852,-0.1852,-0.1825,-0.1781,0,0,0,0,0,0,0,0,0,0,-0.1711,-0.1655,-0.1707,-0.1709,-0.1772,-0.1852,-0.1852,-0.1779,-0.1784,-0.1771,0,-0.1813,0,-0.186,-0.1827,-0.1827,0,0,0,-0.1706,-0.1651,-0.1736,-0.171,-0.1773,-0.1853,-0.1797,-0.1782,-0.1787,-0.1776,-0.1813,-0.1814,-0.186,-0.1827,-0.1827,-0.1841,-0.1842,0,0,-0.1702,-0.1651,-0.1733,-0.174,-0.1832,-0.1795,-0.1801,-0.1786,-0.1766,-0.1813,-0.1815,-0.1859,-0.1827,-0.1827,-0.1841,-0.1841,0,0,0,-0.1732,-0.1647,-0.1732,-0.1739,-0.1788,-0.1799,-0.1805,-0.1765,-0.1813,-0.1815,-0.1859,-0.1827,-0.1827,-0.1841,-0.1841,-0.1908,0,0,0,-0.1726,-0.1672,-0.173,-0.169,-0.1791,-0.1788,-0.1784,-0.1812,-0.1814,-0.1859,-0.1827,-0.1827,-0.1841,-0.1841,-0.1906,-0.1935,0,0,0,-0.1696,-0.1666,-0.1702,-0.1689,-0.1766,-0.1791,-0.1832,-0.1812,-0.1843,-0.1827,-0.1828,-0.1841,-0.1841,-0.1904,-0.1932,-0.1976,0,0,0,-0.1603,-0.1688,-0.17,-0.1783,-0.1766,-0.1878,-0.1832,-0.1875,-0.187,-0.1827,-0.1841,-0.1841,-0.1904,-0.193,-0.1974,-0.1927,-0.1934,0,0,-0.1676,-0.1694,-0.1748,-0.1766,-0.1892,-0.186,-0.1919,-0.1893,-0.1856,-0.1826,-0.1827,-0.1906,-0.1932,-0.1976,-0.1931,-0.1938,0,0,0,-0.1749,-0.18,-0.1838,-0.1901,-0.1963,-0.1974,-0.1966,-0.1955,-0.1918,-0.1869,-0.1889,-0.1903,-0.1929,-0.1895,-0.19,-0.1833,-0.1842,-0.1842,-0.1842,-0.1789,-0.1839,-0.1916,-0.1987,-0.2025,-0.2047,-0.2055,-0.2022,-0.1976,-0.1968,-0.1944,-0.2004,-0.1967,-0.1971,-0.1902,-0.1929,-0.1929,-0.1929,-0.1929,-0.1903,-0.195,-0.196,-0.2057,-0.2061,-0.2088,-0.2107,-0.2086,-0.2076,-0.2008,-0.203,-0.195,-0.1981,-0.1905,-0.1933,-0.1932,-0.1932,-0.1932,-0.1931,-0.192,-0.1949,-0.1988,-0.206,-0.2086,-0.2101,-0.2101,-0.2113,-0.2125,-0.2143,-0.2069,-0.2067,-0.2012,-0.2127,-0.2127,-0.2127,-0.2128,-0.2128,-0.2128,-0.1914,-0.1961,-0.2003,-0.2072,-0.2083,-0.2097,-0.2089,-0.2093,-0.2119,-0.2134,-0.2133,-0.2013,-0.2065,-0.2071,-0.2133,-0.2132,-0.2132,-0.2131,-0.2131,-0.1975,-0.1949,-0.2024,-0.2044,-0.2075,-0.2019,-0.2031,-0.2013,-0.2069,-0.2103,-0.2062,-0.2141,-0.2117,-0.211,-0.2116,-0.2188,-0.2188,-0.2188,-0.2188,-0.1954,-0.1971,-0.2011,-0.2032,-0.203,-0.1982,-0.1853,-0.1879,-0.1981,-0.2012,-0.2049,-0.1978,-0.1979,-0.1942,-0.194,-0.194,-0.1965,-0.1965,-0.1964,-0.1956,-0.1972,-0.1975,-0.2,-0.1989,-0.1885,-0.1704,-0.1704,-0.187,-0.195,-0.197,-0.198,-0.1869,-0.1875,-0.181,-0.1811,-0.1808,0,0]},{"header":{"parameterUnit":"m.s-1","parameterCategory":2,"la1":30.2992,"la2":30.254,"lo1":-89.0895,"lo2":-89.0443,"dy":0.0025,"dx":0.0025,"nx":19,"ny":19,"refTime":"2026-04-12T09:00:00:Z","depth":"0","parameterNumber":3,"parameterNumberName":"V-component_of_CURRENTS"},"data":[0,0,0,-0.0548,-0.0546,-0.0395,-0.0394,-0.0057,-0.0054,0,0,0,0,0,0,0,0,0,0,0,-0.0602,-0.0601,-0.0549,-0.0545,-0.0395,-0.0394,-0.0058,-0.0054,0,0,0,0,0,0,0,0,0,0,0,-0.0602,-0.0602,-0.0601,-0.0545,-0.0395,-0.0394,-0.0058,-0.0204,0,0,0,0,0,0,0,0,0,0,-0.0367,-0.0467,-0.0602,-0.0601,-0.0544,-0.0395,-0.0394,-0.0213,-0.0195,-0.0089,0,-0.0078,0,-0.0058,-0.0029,-0.0028,0,0,0,-0.053,-0.0483,-0.0419,-0.0601,-0.0543,-0.0395,-0.0458,-0.0204,-0.0184,-0.0065,-0.0073,-0.0061,-0.0053,-0.0027,-0.0025,0.0224,0.0224,0,0,-0.0538,-0.0586,-0.0433,-0.0407,-0.0514,-0.0463,-0.0454,-0.0193,-0.0186,-0.0072,-0.0054,-0.0047,-0.0025,-0.0022,0.0224,0.0224,0,0,0,-0.0573,-0.0592,-0.0538,-0.042,-0.0404,-0.0459,-0.0448,-0.0198,-0.0174,-0.005,-0.0043,-0.0022,-0.0018,0.0224,0.0224,0.0077,0,0,0,-0.0577,-0.0612,-0.0542,-0.057,-0.0411,-0.0325,-0.046,-0.0193,-0.0163,-0.0045,-0.0022,-0.0014,0.0224,0.0224,0.0081,-0.0003,0,0,0,-0.0607,-0.0616,-0.0598,-0.0573,-0.0513,-0.0329,-0.0292,-0.0187,-0.0158,-0.0028,-0.0013,0.0224,0.0224,0.0084,0.0004,-0.0015,0,0,0,-0.066,-0.0659,-0.06,-0.0587,-0.0514,-0.0404,-0.0294,-0.0189,-0.0087,-0.0021,0.0224,0.0224,0.0086,0.0009,-0.0011,0.0063,0.005,0,0,-0.069,-0.0665,-0.0653,-0.0596,-0.0528,-0.0424,-0.0347,-0.0169,-0.0049,0.0152,0.0157,0.008,0.0005,-0.0014,0.0063,0.0049,0,0,0,-0.0682,-0.0674,-0.0639,-0.0589,-0.0488,-0.042,-0.0252,-0.0172,-0.0025,0.0009,0.0121,0.0079,0.0071,0.0126,0.0116,0.0383,0.0224,0.0224,0.0224,-0.0773,-0.0713,-0.0692,-0.0605,-0.0539,-0.0391,-0.0328,-0.0185,-0.0047,-0.0017,-0.001,-0.0085,-0.0027,-0.0034,0.024,0.0039,0.0038,0.0038,0.0038,-0.0821,-0.0811,-0.0744,-0.0706,-0.0615,-0.054,-0.0375,-0.0297,-0.0187,-0.0091,-0.009,0.0007,-0.0054,0.0243,0.0029,0.003,0.0031,0.0032,0.0033,-0.0883,-0.0874,-0.085,-0.0813,-0.077,-0.0648,-0.0629,-0.0488,-0.033,-0.0335,-0.0201,-0.0196,0.0041,-0.0312,-0.0313,-0.0313,-0.0314,-0.0314,-0.0314,-0.0962,-0.0936,-0.0957,-0.0916,-0.0915,-0.0887,-0.0777,-0.0723,-0.0526,-0.0355,-0.0352,0.0065,-0.0191,-0.0205,-0.0322,-0.032,-0.0319,-0.0319,-0.0318,-0.1022,-0.1028,-0.1072,-0.1086,-0.1088,-0.1154,-0.1049,-0.0894,-0.0756,-0.0646,-0.0006,-0.0329,-0.0268,-0.0255,-0.0268,-0.0395,-0.0395,-0.0395,-0.0395,-0.1084,-0.108,-0.1173,-0.1225,-0.1268,-0.1272,-0.1344,-0.1063,-0.0411,0.0003,0.0112,0.0245,0.0237,0.0337,0.0336,0.034,0.0371,0.0372,0.0373,-0.1128,-0.1162,-0.1248,-0.1296,-0.1347,-0.1435,-0.1533,-0.111,-0.0003,0.0431,0.0465,0.0433,0.0656,0.0621,0.0804,0.0781,0.0796,0,0]}],[{"header":{"parameterUnit":"m.s-1","parameterCategory":2,"la1":30.2992,"la2":30.254,"lo1":-89.0895,"lo2":-89.0443,"dy":0.0025,"dx":0.0025,"nx":19,"ny":19,"refTime":"2026-04-12T09:00:00:Z","depth":"2","parameterNumber":2,"parameterNumberName":"U-component_of_CURRENTS"},"data":[0,0,0,-0.0813,-0.0814,-0.0817,-0.0817,-0.0822,-0.0822,0,0,0,0,0,0,0,0,0,0,0,-0.0798,-0.0798,-0.0813,-0.0814,-0.0817,-0.0817,-0.0822,-0.0822,0,0,0,0,0,0,0,0,0,0,0,-0.0798,-0.0798,-0.0798,-0.0814,-0.0817,-0.0817,-0.0822,-0.0818,0,0,0,0,0,0,0,0,0,0,-0.0814,-0.0765,-0.0798,-0.0798,-0.0814,-0.0817,-0.0817,-0.0818,-0.0818,-0.0824,0,-0.0817,0,-0.083,-0.0823,-0.0824,0,0,0,-0.0807,-0.0764,-0.0806,-0.0798,-0.0814,-0.0817,-0.0813,-0.0818,-0.0819,-0.0824,-0.0818,-0.0818,-0.083,-0.0824,-0.0824,-0.1025,-0.1027,0,0,-0.0807,-0.0761,-0.0806,-0.0806,-0.0807,-0.0813,-0.0814,-0.0818,-0.0791,-0.0818,-0.0819,-0.083,-0.0824,-0.0824,-0.1023,-0.1026,0,0,0,-0.0811,-0.076,-0.0801,-0.0806,-0.0811,-0.0814,-0.0814,-0.079,-0.0815,-0.0819,-0.083,-0.0824,-0.0824,-0.1021,-0.1024,-0.109,0,0,0,-0.081,-0.0765,-0.0801,-0.0768,-0.0811,-0.0791,-0.0785,-0.0814,-0.0815,-0.083,-0.0824,-0.0824,-0.1019,-0.1023,-0.1083,-0.1129,0,0,0,-0.08,-0.0762,-0.077,-0.0767,-0.0778,-0.0792,-0.0815,-0.0814,-0.0823,-0.0824,-0.0824,-0.1017,-0.1022,-0.1077,-0.1119,-0.1287,0,0,0,-0.0745,-0.0741,-0.0768,-0.0771,-0.0778,-0.0856,-0.0815,-0.0831,-0.0834,-0.0824,-0.1019,-0.1024,-0.1075,-0.1113,-0.128,-0.1173,-0.12,0,0,-0.0723,-0.0736,-0.075,-0.0777,-0.0849,-0.0855,-0.0957,-0.0925,-0.0926,-0.101,-0.1014,-0.1085,-0.1118,-0.1286,-0.1461,-0.1479,0,0,0,-0.0736,-0.074,-0.0767,-0.0807,-0.0878,-0.0982,-0.0976,-0.1043,-0.113,-0.0954,-0.1169,-0.119,-0.1292,-0.1214,-0.1231,-0.1048,-0.1047,-0.1046,-0.1046,-0.0611,-0.0702,-0.0746,-0.0867,-0.0936,-0.1067,-0.1187,-0.1294,-0.1222,-0.1321,-0.1304,-0.1561,-0.148,-0.1491,-0.1366,-0.1366,-0.1367,-0.1367,-0.1367,-0.0592,-0.0625,-0.0759,-0.0834,-0.0999,-0.1097,-0.1371,-0.1409,-0.1635,-0.152,-0.1615,-0.1362,-0.1511,-0.1374,-0.1373,-0.1372,-0.1371,-0.137,-0.137,-0.0497,-0.0539,-0.0602,-0.0757,-0.0926,-0.1112,-0.1373,-0.1535,-0.1697,-0.1806,-0.1728,-0.1724,-0.1593,-0.1821,-0.1822,-0.1823,-0.1824,-0.1824,-0.1825,-0.037,-0.046,-0.052,-0.0691,-0.0798,-0.1007,-0.1368,-0.1577,-0.1784,-0.1842,-0.1841,-0.1716,-0.1701,-0.1626,-0.184,-0.1837,-0.1835,-0.1834,-0.1833,-0.029,-0.0312,-0.0406,-0.0501,-0.0786,-0.1007,-0.1327,-0.1694,-0.1924,-0.2025,-0.1915,-0.1908,-0.1895,-0.1879,-0.1811,-0.2062,-0.2062,-0.2062,-0.2062,-0.0202,-0.0234,-0.0347,-0.0503,-0.0738,-0.1022,-0.1381,-0.1622,-0.1829,-0.179,-0.1801,-0.1612,-0.1609,-0.1569,-0.156,-0.1481,-0.1646,-0.1645,-0.1644,-0.0172,-0.0205,-0.0273,-0.0437,-0.0716,-0.1039,-0.1342,-0.1467,-0.1441,-0.1622,-0.167,-0.2045,-0.1787,-0.1776,-0.1723,-0.1706,-0.1583,0,0]},{"header":{"parameterUnit":"m.s-1","parameterCategory":2,"la1":30.2992,"la2":30.254,"lo1":-89.0895,"lo2":-89.0443,"dy":0.0025,"dx":0.0025,"nx":19,"ny":19,"refTime":"2026-04-12T09:00:00:Z","depth":"2","parameterNumber":3,"parameterNumberName":"V-component_of_CURRENTS"},"data":[0,0,0,0.0129,0.0128,0.0038,0.0038,0.0028,0.0029,0,0,0,0,0,0,0,0,0,0,0,0.0135,0.0134,0.0129,0.0128,0.0038,0.0038,0.0028,0.0029,0,0,0,0,0,0,0,0,0,0,0,0.0135,0.0134,0.0133,0.0127,0.0038,0.0038,0.0028,0.0066,0,0,0,0,0,0,0,0,0,0,0.0138,0.0096,0.0134,0.0133,0.0127,0.0039,0.0038,0.0066,0.0064,0.0103,0,0.0074,0,0.0072,0.0032,0.0032,0,0,0,0.0113,0.0098,0.0119,0.0133,0.0126,0.0039,0.0074,0.0064,0.0061,0.01,0.0074,0.0073,0.0072,0.0032,0.0032,0.0147,0.0148,0,0,0.0118,0.0082,0.012,0.0116,0.0086,0.0077,0.0072,0.0061,0.0027,0.0074,0.0073,0.0072,0.0032,0.0033,0.0146,0.0147,0,0,0,0.0142,0.0084,0.0101,0.0117,0.0103,0.0075,0.0069,0.0026,0.0043,0.0073,0.0072,0.0033,0.0033,0.0145,0.0147,0.0004,0,0,0,0.0144,0.0101,0.0103,0.0076,0.0103,0.0041,0.0034,0.0043,0.0042,0.0072,0.0033,0.0034,0.0144,0.0146,0.0006,-0.008,0,0,0,0.0142,0.01,0.0094,0.0075,0.0052,0.0042,0.0054,0.0041,0.0044,0.0032,0.0034,0.0144,0.0146,0.0007,-0.0075,-0.0114,0,0,0,0.0105,0.0041,0.0092,0.0015,0.0053,0.003,0.0054,-0.0002,-0.0025,0.0033,0.0144,0.0147,0.0007,-0.0072,-0.0111,-0.0031,-0.0039,0,0,0.0012,0.0028,-0.001,0.0035,-0.0016,0.0042,0.0007,-0.0025,0.0042,0.015,0.0152,0.0005,-0.0075,-0.0113,0.0094,0.0081,0,0,0,-0.0046,-0.0082,-0.0088,-0.0113,-0.0083,-0.0068,-0.0053,-0.0016,0.0027,0.0046,0.009,0.0046,0.0024,0.0083,0.0075,0.0157,0.0157,0.0156,0.0156,-0.0239,-0.0197,-0.0257,-0.0205,-0.0202,-0.0147,-0.014,-0.0058,0.0005,0.0028,-0.0008,-0.005,0.0017,0.001,0.008,0.008,0.0079,0.0079,0.0079,-0.0378,-0.0407,-0.0354,-0.0403,-0.0328,-0.0334,-0.0207,-0.0174,-0.0116,-0.0033,-0.0047,0.0009,-0.0008,0.0069,0.0071,0.0072,0.0073,0.0074,0.0075,-0.0501,-0.0501,-0.0529,-0.0545,-0.0549,-0.0457,-0.0456,-0.0358,-0.0256,-0.0276,-0.016,-0.0156,-0.0194,-0.0271,-0.0272,-0.0272,-0.0272,-0.0273,-0.0273,-0.0613,-0.0618,-0.0675,-0.0685,-0.0694,-0.0689,-0.0613,-0.0595,-0.0449,-0.0301,-0.0299,-0.0167,-0.0156,-0.0208,-0.0281,-0.028,-0.0279,-0.0278,-0.0278,-0.0743,-0.0746,-0.0801,-0.0832,-0.0838,-0.0894,-0.0823,-0.075,-0.0673,-0.0601,-0.0288,-0.0285,-0.0234,-0.0222,-0.0271,-0.0357,-0.0357,-0.0357,-0.0357,-0.0823,-0.0829,-0.0881,-0.0901,-0.0934,-0.0961,-0.1064,-0.0875,-0.0584,-0.0311,-0.0313,-0.0214,-0.021,-0.0151,-0.0141,-0.0186,-0.025,-0.025,-0.025,-0.0886,-0.0885,-0.0924,-0.0932,-0.0958,-0.1073,-0.119,-0.0895,-0.0325,-0.025,-0.0338,-0.0342,-0.0194,-0.019,-0.0091,-0.0078,-0.0147,0,0]}],[{"header":{"parameterUnit":"m.s-1","parameterCategory":2,"la1":30.2992,"la2":30.254,"lo1":-89.0895,"lo2":-89.0443,"dy":0.0025,"dx":0.0025,"nx":19,"ny":19,"refTime":"2026-04-12T09:00:00:Z","depth":"4","parameterNumber":2,"parameterNumberName":"U-component_of_CURRENTS"},"data":[0,0,0,-0.0875,-0.0876,-0.092,-0.092,-0.0897,-0.0897,0,0,0,0,0,0,0,0,0,0,0,-0.0859,-0.086,-0.0875,-0.0876,-0.092,-0.092,-0.0897,-0.0897,0,0,0,0,0,0,0,0,0,0,0,-0.0859,-0.0859,-0.086,-0.0877,-0.092,-0.092,-0.0897,-0.0881,0,0,0,0,0,0,0,0,0,0,-0.0846,-0.0837,-0.0859,-0.086,-0.0877,-0.092,-0.092,-0.0881,-0.0882,-0.0858,0,-0.0878,0,-0.0891,-0.0895,-0.0894,0,0,0,-0.0864,-0.0836,-0.0862,-0.086,-0.0878,-0.092,-0.0897,-0.0882,-0.0883,-0.0859,-0.0878,-0.0878,-0.0891,-0.0894,-0.0894,-0.0946,-0.0947,0,0,-0.0861,-0.0848,-0.0862,-0.0863,-0.0904,-0.0896,-0.0899,-0.0883,-0.088,-0.0878,-0.0878,-0.0891,-0.0894,-0.0894,-0.0945,-0.0946,0,0,0,-0.0863,-0.0847,-0.0874,-0.0863,-0.0881,-0.0897,-0.09,-0.0881,-0.0895,-0.0877,-0.089,-0.0894,-0.0894,-0.0944,-0.0946,-0.1035,0,0,0,-0.0861,-0.0849,-0.0873,-0.0863,-0.0882,-0.089,-0.0898,-0.0896,-0.0895,-0.089,-0.0894,-0.0893,-0.0943,-0.0945,-0.1031,-0.105,0,0,0,-0.0854,-0.0847,-0.0861,-0.0863,-0.089,-0.0891,-0.0903,-0.0896,-0.0902,-0.0894,-0.0893,-0.0943,-0.0945,-0.1027,-0.1044,-0.1093,0,0,0,-0.0827,-0.0842,-0.0861,-0.0878,-0.089,-0.093,-0.0903,-0.0918,-0.0915,-0.0894,-0.0944,-0.0945,-0.1026,-0.104,-0.1089,-0.0866,0,0,0,-0.0828,-0.0841,-0.0852,-0.0871,-0.0903,-0.0922,-0.0968,-0.0951,-0.0938,-0.0938,-0.094,-0.1032,-0.1043,-0.1092,-0.0982,0,0,0,0,-0.084,-0.0847,-0.086,-0.0885,-0.0923,-0.0975,-0.0976,-0.1004,-0.104,-0.095,-0.1047,-0.105,-0.1079,-0.0938,-0.0955,-0.0955,-0.0954,-0.0954,-0.0954,-0.0802,-0.0833,-0.0849,-0.0895,-0.0937,-0.101,-0.1062,-0.1102,-0.108,-0.1132,-0.1135,-0.1247,-0.1104,-0.1158,-0.1159,-0.1159,-0.116,-0.116,-0.116,-0.0778,-0.0778,-0.0841,-0.0866,-0.095,-0.1005,-0.1139,-0.1174,-0.1273,-0.124,-0.1264,-0.1057,-0.1169,-0.1167,-0.1166,-0.1165,-0.1164,-0.1164,-0.1163,-0.0725,-0.073,-0.076,-0.081,-0.0896,-0.1006,-0.1124,-0.1253,-0.1328,-0.1383,-0.1226,-0.1304,-0.1282,-0.1404,-0.1405,-0.1405,-0.1405,-0.1406,-0.1406,-0.0646,-0.0682,-0.0682,-0.075,-0.0778,-0.0895,-0.1132,-0.1214,-0.1346,-0.1292,-0.141,-0.1328,-0.132,-0.1296,-0.1411,-0.141,-0.1409,-0.1409,-0.1409,-0.0562,-0.059,-0.058,-0.0591,-0.0649,-0.0728,-0.098,-0.1146,-0.1228,-0.1217,-0.124,-0.1246,-0.1187,-0.1182,-0.115,-0.1226,-0.1224,-0.1221,0,-0.0497,-0.0513,-0.0489,-0.0468,-0.0483,-0.0621,-0.0729,-0.0881,-0.1026,-0.0986,-0.1169,-0.1187,-0.1193,-0.1115,-0.1108,-0.1063,0,0,0,-0.0438,-0.0447,-0.0401,-0.0393,-0.0383,-0.054,-0.0754,-0.0787,-0.1006,-0.1036,-0.116,-0.1176,-0.126,-0.1427,-0.1351,-0.1341,-0.1297,0,0]},{"header":{"parameterUnit":"m.s-1","parameterCategory":2,"la1":30.2992,"la2":30.254,"lo1":-89.0895,"lo2":-89.0443,"dy":0.0025,"dx":0.0025,"nx":19,"ny":19,"refTime":"2026-04-12T09:00:00:Z","depth":"4","parameterNumber":3,"parameterNumberName":"V-component_of_CURRENTS"},"data":[0,0,0,0.0282,0.0283,0.0313,0.0313,0.0371,0.0372,0,0,0,0,0,0,0,0,0,0,0,0.0273,0.0273,0.0282,0.0283,0.0313,0.0313,0.0371,0.0372,0,0,0,0,0,0,0,0,0,0,0,0.0273,0.0273,0.0274,0.0283,0.0313,0.0313,0.0371,0.0344,0,0,0,0,0,0,0,0,0,0,0.0313,0.0295,0.0273,0.0274,0.0283,0.0313,0.0313,0.0343,0.0346,0.0361,0,0.0364,0,0.0367,0.0376,0.0376,0,0,0,0.0287,0.0292,0.0305,0.0274,0.0283,0.0313,0.0301,0.0345,0.0348,0.0366,0.0365,0.0367,0.0368,0.0376,0.0376,0.0429,0.0429,0,0,0.0286,0.0276,0.0302,0.0307,0.0289,0.03,0.0301,0.0347,0.0347,0.0365,0.0368,0.0369,0.0376,0.0377,0.0429,0.0429,0,0,0,0.0278,0.0275,0.0286,0.0305,0.0308,0.03,0.0302,0.0345,0.035,0.0369,0.037,0.0377,0.0377,0.0429,0.0429,0.0352,0,0,0,0.0277,0.027,0.0285,0.028,0.0306,0.0323,0.03,0.0347,0.0352,0.037,0.0377,0.0378,0.0428,0.0429,0.0354,0.03,0,0,0,0.0272,0.0269,0.0273,0.0279,0.029,0.0322,0.0329,0.0348,0.0353,0.0376,0.0378,0.0428,0.0429,0.0355,0.0304,0.0303,0,0,0,0.0261,0.0242,0.0273,0.0245,0.029,0.0277,0.0329,0.033,0.0343,0.0377,0.0428,0.0429,0.0356,0.0307,0.0305,0.0255,0,0,0,0.0225,0.0238,0.0218,0.0245,0.02,0.0274,0.0251,0.0296,0.0359,0.0416,0.0417,0.0353,0.0304,0.0303,0.0277,0,0,0,0,0.0197,0.0178,0.0172,0.0154,0.0169,0.0178,0.0234,0.0281,0.0344,0.037,0.0382,0.0354,0.0355,0.0334,0.043,0.043,0.043,0.043,0.043,0.0134,0.0125,0.0073,0.0064,0.0064,0.0117,0.0145,0.0228,0.0295,0.0328,0.0313,0.0286,0.0262,0.0351,0.035,0.035,0.035,0.0349,0.0349,0.0051,0.0014,-0.0006,-0.0056,-0.0037,-0.0036,0.0059,0.0127,0.0214,0.0275,0.0282,0.0281,0.0342,0.0344,0.0345,0.0345,0.0346,0.0346,0.0347,0.0009,-0.0015,-0.0047,-0.0121,-0.0161,-0.0123,-0.0112,0.0,0.0126,0.0142,0.017,0.0244,0.0226,0.017,0.0169,0.0169,0.0169,0.0169,0.0169,-0.0013,-0.0054,-0.0113,-0.019,-0.0243,-0.027,-0.0189,-0.0125,0.001,0.007,0.0133,0.0226,0.0232,0.0218,0.0165,0.0165,0.0166,0.0166,0.0167,-0.0063,-0.0067,-0.0153,-0.0216,-0.0346,-0.0378,-0.0325,-0.0194,-0.012,-0.0046,0.005,0.0057,0.0083,0.0092,0.0075,-0.0024,-0.0025,-0.0025,0,-0.0082,-0.0096,-0.0193,-0.0296,-0.04,-0.0438,-0.0384,-0.0297,-0.0139,-0.0144,-0.0098,0.0005,0.0013,0.0038,0.0046,0.0022,0,0,0,-0.0117,-0.0134,-0.0202,-0.0299,-0.0432,-0.0412,-0.0369,-0.0315,-0.019,-0.0118,-0.0047,-0.0042,0.0056,0.0154,0.021,0.0217,0.0199,0,0]}]]